Regional Weather Roundup
Issued by NWS

Home | Current Version | Previous Version | Graphics & Text | Print | Product List | Glossary On
Versions: 1 2 3 4 5 6 7 8 9 10 11 12 13 14 15 16 17 18 19 20 21 22 23 24 25 26 27 28 29 30 31 32 33 34 35 36 37 38 39 40 41 42 43 44 45 46 47 48 49 50
000
ASUS43 KIND 302109
RWRIN

WEATHER ROUNDUP FOR INDIANA
NATIONAL WEATHER SERVICE INDIANAPOLIS IN
500 PM EDT TUE JUN 30 2015

NOTE: "FAIR" INDICATES FEW OR NO CLOUDS BELOW 12,000 FEET WITH NO
SIGNIFICANT WEATHER AND/OR OBSTRUCTIONS TO VISIBILITY.

* - STATION DOES NOT REPORT WEATHER SUCH AS PRECIPITATION OR FOG.

+ - STATION NOT QUALITY CONTROLLED BY THE NATIONAL WEATHER SERVICE.
    USE DATA WITH CAUTION...ESPECIALLY DEWPOINT AND RELATIVE
    HUMIDITY OBSERVATIONS.

INZ001>003-010>013-019-020-302200-
NORTHWEST INDIANA

CITY           SKY/WX    TMP DP  RH WIND       PRES   REMARKS
GARY /AIRPORT/ PTSUNNY  N/A N/A N/A NE7       29.83F
KNOX *+        MOSUNNY   73  61  64 N13G20    29.80S
LA PORTE +     MOSUNNY   73  62  67 N13       29.82F
MICHIGAN CITY+ MOSUNNY   72  59  64 NW7       29.83F
MONTICELLO +   MOSUNNY   79  63  58 W10G17    29.79F
RENSSELAER +   MOSUNNY   79  63  57 W13       29.81S
VALPARAISO     SUNNY     74  62  66 N9G17     29.82S

$$

LMZ046-743>745-302200-
SOUTHERN LAKE MICHIGAN

STATION/POSITION TIME  TEMP    WIND        PRES    WAVE
                       AIR SEA DIR/SP/G            HT
                 (UTC) (F)     (DEG/KT/KT) (MB)    (FT)
BURNS HARBOR     2100   67      60/  8/ 10 1010.5S
MICHIGAN CITY    2100   63      30/  4/  6   N/A
5NW MICH CITY    2100   64 66   90/  2/  4   N/A     1

$$

INZ004-005-014>016-021>024-302200-
NORTH CENTRAL INDIANA

CITY           SKY/WX    TMP DP  RH WIND       PRES   REMARKS
ELKHART        PTSUNNY   72  59  64 NW10G18   29.81S
GOSHEN         SUNNY     73  61  65 NW16      29.79S
LOGANSPORT +   PTSUNNY   79  55  44 NW12      29.80F
PERU/GRISSOM   MOSUNNY   79  61  54 NW14      29.78F
ROCHESTER +    MOSUNNY   79  64  61 NW9G16    29.80S
SOUTH BEND     MOSUNNY   73  61  65 NW13      29.82S
WARSAW +         N/A     77  61  57 NW15      29.79S

$$

INZ006>009-017-018-025>027-302200-
NORTHEAST INDIANA

CITY           SKY/WX    TMP DP  RH WIND       PRES   REMARKS
ANGOLA *+      PTSUNNY   77  64  65 W9        29.77S
AUBURN +       MOSUNNY   77  59  53 W9        29.78F
FORT WAYNE     MOSUNNY   79  63  57 W14       29.78F
HUNTINGTON +   MOSUNNY   77  62  59 W9        29.78S

$$

INZ028-029-035-036-043>045-051>053-302200-
WEST CENTRAL INDIANA

CITY           SKY/WX    TMP DP  RH WIND       PRES   REMARKS
CRAWFORDSVL +  MOSUNNY   78  59  51 W12G20    29.81S
GREENCASTLE +  LGT RAIN  70  63  78 N3        29.83S
LAFAYETTE      SUNNY     79  63  57 NW13G21   29.79F
TERRE HAUTE    SUNNY     83  66  56 W14       29.81F

$$

INZ030>032-037>040-046>048-054>057-064-065-302200-
CENTRAL INDIANA

CITY           SKY/WX    TMP DP  RH WIND       PRES   REMARKS
CP ATTERBURY + MOSUNNY   81  63  54 W8        29.80F
COLUMBUS       MOSUNNY   81  63  54 W8        29.80F
FRANKFORT +    MOSUNNY   80  64  59 W13G21    29.82F
INDIANAPOLIS   PTSUNNY   80  64  58 W13       29.79F
-EAGLE CREEK   MOSUNNY   80  65  59 W10       29.79F
KOKOMO *+      MOSUNNY   81  63  54 NW17      29.79S
MARION +       PTSUNNY   77  60  55 W10G17    29.80S
MT COMFORT *+  SUNNY     81  52  36 W15       29.80F
SHELBYVILLE    MOSUNNY   81  64  56 W13       29.79F
ZIONSVILLE +   MOSUNNY   80  62  54 W12G20    29.81S

$$

INZ033-034-041-042-049-050-058-059-302200-
EAST CENTRAL INDIANA

CITY           SKY/WX    TMP DP  RH WIND       PRES   REMARKS
MUNCIE         PTSUNNY   78  61  55 NW9       29.80S

$$

INZ060-061-067>069-081>083-085>088-302200-
SOUTHWEST INDIANA

CITY           SKY/WX    TMP DP  RH WIND       PRES   REMARKS
EVANSVILLE     MOSUNNY   83  66  56 W9        29.85F
HUNTINGBURG *+ MOSUNNY   81  68  65 W15       29.85S
WASHINGTON +   MOSUNNY   82  65  55 W8        29.82F

$$

INZ062-063-066-070>080-084-089>092-302200-
SOUTH CENTRAL AND SOUTHEAST INDIANA

CITY           SKY/WX    TMP DP  RH WIND       PRES   REMARKS
BLOOMINGTON    MOSUNNY   81  67  62 W10       29.82F
MADISON *+     CLOUDY    66  59  77 N5        29.85R

$$




USA.gov is the U.S. government's official web portal to all federal, state and local government web resources and services.